Location: ???????
(55.5043°N, 38.7804°E)
Time: 13:15:16
(UTC+00:00)

Daily predictions for brighter satellites

Satellite Brightness Start Highest point End
(mag) Time Altitude Azimuth Time Altitude Azimuth Time Altitude Azimuth
Cosmos 2297 3.8 13:31:23 10° SSW 13:37:04 81° ESE 13:42:45 10° NE
Cosmos 1892 Rocket 3.6 13:35:19 10° N 13:39:48 75° ENE 13:44:14 10° SSE
Cosmos 1464 Rocket 4.0 13:33:59 10° S 13:40:09 83° E 13:46:19 10° NNE
SMAP 3.7 13:36:11 10° SE 13:40:23 35° ENE 13:44:37 10° N
Thor Agena Rocket 3.8 13:36:19 10° SE 13:41:17 47° ENE 13:46:13 10° N
Cosmos 2297 Rocket 2.5 13:38:28 10° NNW 13:43:56 45° NE 13:49:22 10° ESE
Landsat 7 4.5 13:42:31 10° ESE 13:46:37 31° ENE 13:50:43 10° N
Cosmos 2151 4.1 13:44:04 10° NNE 13:47:16 21° ENE 13:50:28 10° ESE
Cosmos 1741 Rocket 4.1 13:43:42 10° SSW 13:49:01 88° ESE 13:54:23 10° NNE
Aureole 3 Rocket 4.3 13:45:37 10° SSW 13:50:01 55° WNW 13:56:11 10° N
Cosmos 1092 Rocket 4.0 13:44:57 10° N 13:51:09 74° ENE 13:57:17 10° SSE
CZ-2D R/B 4.0 13:49:29 10° ESE 13:51:55 21° ENE 13:54:21 10° NNE
BlueWalker 3 3.0 13:51:08 10° W 13:54:36 43° SSW 13:58:04 10° SE
Meteor 2-1 Rocket 4.4 13:50:38 10° S 13:56:33 82° ESE 14:02:25 10° NNE
Cosmos 2219 4.4 13:52:11 10° NNW 13:56:39 23° NNE 14:01:09 10° ENE
Cosmos 1743 3.5 13:56:02 10° NNE 13:58:42 22° ENE 14:01:21 10° ESE
Lacrosse 4 Rocket 1.8 13:55:43 10° SSW 13:59:36 44° ESE 14:03:13 11° NE
ATLAS CENTAUR R/B 0.7 13:57:14 10° NW 14:00:32 63° NE 14:03:43 10° ESE
CZ-4C R/B 2.8 13:55:49 10° NW 14:02:00 65° NNE 14:09:57 10° ESE
Cosmos 1484 Rocket 2.5 14:00:15 10° SSE 14:03:46 87° ENE 14:07:18 10° NNW
Iridium 45 4.1 14:02:34 10° S 14:05:43 75° E 14:08:56 10° N
Cosmos 724 4.3 14:01:05 10° NW 14:07:13 69° NE 14:13:10 10° ESE
JB-3 4.1 14:04:03 10° NNE 14:07:47 82° ESE 14:11:26 10° SSW
Cosmos 2034 Rocket 4.1 14:01:34 10° S 14:07:54 88° E 14:14:19 10° NNE
Meteor 1-28 Rocket 3.4 14:06:21 10° NNE 14:09:33 39° E 14:12:42 10° S
NOSS 3-3 (A) 4.5 14:05:13 10° NW 14:12:10 85° NE 14:20:36 10° SE
Iridium 51 3.9 14:09:35 10° SSE 14:12:35 47° E 14:15:42 10° NNE
Cosmos 1602 Rocket 4.1 14:10:41 10° N 14:14:49 36° ENE 14:18:52 10° SE
MOS 1 Rocket 3.9 14:10:26 10° SE 14:14:59 40° ENE 14:19:48 10° N
Cosmos 1570 Rocket 4.0 14:09:36 10° NNW 14:14:59 86° ENE 14:20:20 10° SSE
Cosmos 1867 3.7 14:09:52 10° NW 14:15:15 55° NNE 14:20:37 10° ESE
IGS 5A 3.3 14:12:46 10° SSE 14:16:45 90° NNW 14:20:45 10° NNW
Cosmos 1455 Rocket 3.0 14:13:04 10° S 14:17:24 89° W 14:21:48 10° NNE
Lacrosse 5 rocket 2.0 14:15:16 10° SSW 14:18:44 36° SE 14:21:16 16° E
Cosmos 1844 Rocket 4.3 14:14:54 10° NNW 14:18:46 18° NNE 14:21:38 13° NE
Cosmos 2084 3.5 14:15:09 10° SW 14:19:16 60° SE 14:22:25 16° ENE
CENTAUR R/B 2.7 14:14:29 10° SSW 14:20:15 68° SE 14:26:39 14° NE
IRS-P3 4.3 14:15:42 10° SE 14:20:46 47° ENE 14:25:51 10° N
Cosmos 2084 Rocket 3.4 14:17:05 10° NW 14:21:17 62° NNE 14:25:27 10° ESE
SAR-Lupe-4 3.7 14:18:18 10° SE 14:21:45 48° ENE 14:25:12 10° N
Cosmos 1900 4.5 14:17:31 10° NW 14:22:33 55° NE 14:27:28 10° ESE
Cosmos 2266 Rocket 4.2 14:19:29 10° N 14:25:30 48° ENE 14:31:22 10° SE
Cosmos 2263 Rocket 2.9 14:20:39 10° NNW 14:25:44 33° NE 14:30:18 12° E
Cosmos 292 Rocket 3.8 14:21:42 10° SSW 14:26:31 81° WNW 14:31:21 10° NNE
Cosmos 1315 Rocket 2.6 14:23:03 10° S 14:26:53 74° E 14:30:43 10° NNE
Resurs 01 Rocket 3.4 14:28:00 13° NE 14:28:00 13° NE 14:29:26 10° NNE
SL-16 R/B 2.5 14:21:00 10° NNE 14:27:17 77° ESE 14:33:30 10° SSW
Cosmos 1607 3.9 14:22:11 10° NW 14:28:26 83° NE 14:34:43 10° SE
SAR-Lupe-1 4.2 14:25:25 10° SE 14:28:54 50° ENE 14:32:27 10° N
SJ 16-02 3.6 14:26:13 10° W 14:28:57 16° NW 14:31:43 10° N
NOSS 7 (H) 4.3 14:26:19 10° NW 14:29:13 47° NNE 14:31:04 19° E
CZ-2D R/B 4.3 14:25:46 10° ESE 14:29:21 28° ENE 14:32:54 10° N
ERS-1 4.5 14:24:43 10° SE 14:29:39 59° ENE 14:34:32 10° N
YAOGAN 1 3.5 14:29:17 10° ESE 14:32:50 26° ENE 14:36:23 10° N
Intercosmos 24 3.8 14:29:10 10° NNW 14:33:37 88° W 14:37:13 10° S
Cosmos 2227 Rocket 2.4 14:29:25 10° NNW 14:34:53 48° NE 14:40:21 10° ESE
Cosmos 1782 2.9 14:32:04 10° SSE 14:35:27 41° E 14:37:56 17° NNE
USA 215 3.3 14:29:44 14° E 14:35:35 79° N 14:42:10 10° W
CORIOLIS 4.2 14:32:14 10° SSE 14:37:35 84° WSW 14:42:58 10° NNW
Cosmos 405 Rocket 2.8 14:37:36 10° NNW 14:40:51 62° W 14:44:03 10° S
USA 281 4.4 14:38:01 17° ENE 14:40:52 23° NNE 14:45:43 10° NNW
Cosmos 1356 Rocket 3.3 14:37:01 10° SSW 14:41:05 85° WNW 14:45:12 10° NNE
Cosmos 773 Rocket 4.1 14:36:09 10° NNW 14:41:22 83° WSW 14:46:36 10° SSE
Cosmos 2369 Rocket 3.0 14:37:04 10° WSW 14:42:30 46° NW 14:47:43 11° NNE
Cosmos 1733 1.7 14:43:12 10° NNW 14:45:07 66° W 14:47:01 10° S
SJ-12 3.6 14:43:15 10° SSE 14:47:02 80° ENE 14:50:50 10° NNW
Cosmos 2208 Rocket 4.2 14:43:36 10° NNW 14:48:46 73° WSW 14:53:55 10° SSE
SJ-6F 4.3 14:45:01 10° SSE 14:48:56 64° ENE 14:52:57 10° N
Cosmos 1825 Rocket 3.9 14:45:05 10° N 14:49:14 40° ENE 14:53:19 10° SE
ARIANE 5 R/B 2.5 14:44:36 10° SSE 14:49:41 87° WSW 14:54:51 10° NNW
Cosmos 1933 4.4 14:47:11 10° SE 14:49:46 23° ESE 14:49:46 23° ESE
Cosmos 1758 Rocket 3.6 14:46:08 10° NNW 14:50:29 78° W 14:54:46 10° S
Cosmos 2278 Rocket 4.0 14:46:59 10° WNW 14:51:00 19° NNW 14:54:37 11° NNE
Cosmos 1943 Rocket 4.0 14:47:32 10° WNW 14:51:19 18° NNW 14:54:44 11° NNE
GEOS 3 Rocket 3.7 14:48:18 20° NE 14:52:03 70° SE 14:57:25 10° SW
SPOT 1/Viking Rocket 3.6 14:47:16 10° SE 14:52:19 54° ENE 14:57:25 10° N
Cosmos 2228 3.1 14:48:15 10° SSW 14:52:30 76° WNW 14:56:47 10° N
IRAS Rocket 4.5 14:47:29 10° SE 14:52:38 43° ENE 14:57:48 10° N
Cosmos 2098 Rocket 3.0 14:53:06 10° S 14:57:05 63° E 15:01:50 10° NNE
Cosmos 1697 Rocket 3.8 14:53:35 10° SSE 14:57:54 23° ESE 14:58:26 23° E
Meteor 1-20 Rocket 4.0 14:53:28 10° NNW 14:58:59 79° ENE 15:04:27 10° SSE
BREEZE-M DEB (TANK) 3.7 14:57:12 10° WSW 15:00:04 40° S 15:05:50 14° ESE
AQUARIUS 4.2 15:02:26 10° SSE 15:06:52 80° WSW 15:11:18 10° NNW
NOSS 2-2 (C) 2.4 15:06:49 10° SW 15:09:55 76° SE 15:10:15 64° E
USA 290 3.1 15:10:27 10° NW 15:13:38 51° WSW 15:16:49 10° S
NOSS 3-2 (C) 3.9 15:09:17 10° S 15:13:53 34° ESE 15:15:10 30° E
NOSS 3-2 (A) 3.2 15:10:11 10° SW 15:15:19 67° SE 15:18:17 31° ENE
Cosmos 1655 Rocket 4.0 15:09:45 10° N 15:15:58 59° ENE 15:22:05 10° SSE
SMAP 4.3 15:13:15 10° S 15:17:41 43° W 15:22:09 10° NNW
Cosmos 2082 4.2 15:14:04 10° NNW 15:19:26 39° NE 15:20:46 35° ENE
Cosmos 1241 Rocket 4.5 15:13:32 10° SSW 15:19:49 67° SE 15:22:58 31° NE
Cosmos 1538 Rocket 4.1 15:17:45 10° NNW 15:22:55 52° NE 15:25:01 33° ESE
CZ-2D R/B 4.4 15:20:45 10° SSW 15:23:41 36° W 15:26:39 10° NNW
Cosmos 2151 3.5 15:20:22 10° NNW 15:24:27 59° W 15:28:32 10° S
Cosmos 1606 Rocket 3.6 15:22:59 10° S 15:27:16 53° E 15:27:45 50° ENE
Cosmos 2297 Rocket 3.1 15:22:37 10° NW 15:28:06 50° WSW 15:33:31 10° S
UNK 4.2 15:23:59 11° N 15:28:25 61° WNW 15:32:56 10° SSW
Meteor 1-25 Rocket 4.3 15:22:56 10° NNW 15:28:49 83° W 15:34:37 10° S
BREEZE-M DEB (TANK) 4.3 15:25:56 10° WSW 15:29:15 46° S 15:33:46 23° ESE
Cosmos 1076 Rocket 3.4 15:26:03 10° N 15:30:20 61° ENE 15:32:39 26° SSE
Okean 1-7 Rocket 3.8 15:26:53 10° NNW 15:31:17 70° W 15:35:38 10° S
Cosmos 1743 4.1 15:29:23 10° NNW 15:32:20 32° W 15:35:16 10° SSW
Cosmos 1656 3.6 15:28:38 10° SSW 15:34:16 87° ESE 15:37:03 32° NE
Resurs 1-3 3.4 15:30:08 10° SSE 15:34:26 78° ENE 15:38:46 10° NNW
ATLAS CENTAUR R/B 3.5 15:32:37 10° WNW 15:35:03 20° WSW 15:37:27 10° S
Cosmos 1544 Rocket 4.3 15:31:59 10° SSW 15:36:17 52° WNW 15:40:20 12° N
Cosmos 1503 Rocket 4.0 15:31:31 10° S 15:36:41 61° ESE 15:37:55 47° ENE
Meteor 2-10 4.1 15:32:01 10° N 15:37:12 56° ENE 15:39:46 30° SE
Lacrosse 4 Rocket 2.5 15:33:45 10° WSW 15:37:32 37° NW 15:38:43 30° N
OceanSat 1 rocket 4.4 15:34:16 10° SSE 15:39:00 74° ENE 15:43:44 10° NNW
Cosmos 2219 3.3 15:36:21 10° NNW 15:42:01 57° NE 15:43:14 48° E
Cosmos 1461 4.2 15:39:14 10° S 15:41:17 25° SSE 15:41:17 25° SSE
SJ-7 4.1 15:42:23 53° S 15:43:12 85° WSW 15:46:59 10° NNW
Cosmos 1354 Rocket 4.1 15:38:26 10° S 15:43:31 51° ESE 15:43:36 51° ESE
Meteor 1-5 Rocket 4.0 15:38:43 10° NNW 15:44:03 90° NE 15:49:28 10° SSE
SKYMED 2 3.4 15:45:54 72° ENE 15:46:06 74° ESE 15:50:26 10° S
Spot 4 Rocket 4.1 15:41:52 10° SSE 15:46:59 79° WSW 15:52:08 10° NNW
CZ-4C R/B 3.5 15:43:56 10° NW 15:50:30 56° SW 15:58:40 10° SSE
COSMO-SKYMED 1 4.0 15:52:52 25° S 15:52:52 25° S 15:54:40 10° S
SL-19 R/B 4.2 15:47:41 10° SSE 15:53:03 81° WSW 15:58:45 10° NNW
Cosmos 1726 Rocket 3.7 15:49:21 10° S 15:53:24 62° SSE 15:53:24 62° SSE
PSLV R/B 3.5 15:52:38 31° S 15:54:30 75° WSW 15:58:34 10° NNW
Lacrosse 5 rocket 1.6 15:51:50 10° WSW 15:54:52 56° W 15:54:52 56° W
Cosmos 44 Rocket 4.2 15:52:04 10° NW 15:56:25 37° NNE 15:56:25 37° NNE
Cosmos 2084 4.1 15:54:06 10° W 15:58:06 43° NNW 15:58:08 43° NNW
Cosmos 1867 4.4 15:53:37 10° NW 15:58:52 48° SW 16:03:16 14° SSE
Cosmos 1777 Rocket 3.9 15:53:36 10° SSW 15:58:52 86° WNW 16:00:11 52° NNE
Cosmos 1980 Rocket 3.9 15:54:23 10° SSE 15:55:56 17° SSE 15:55:56 17° SSE
Resurs 01 Rocket 3.3 16:05:25 23° N 16:05:25 23° N 16:07:08 10° N
CZ-2D R/B 4.5 16:00:03 10° S 16:04:06 46° W 16:08:09 10° NNW
Cosmos 1844 Rocket 3.6 15:59:06 10° NNW 16:03:16 34° NNE 16:03:16 34° NNE
YAOGAN 1 3.3 16:04:18 10° S 16:08:28 52° W 16:12:39 10° NNW
Cosmos 2263 Rocket 2.2 16:04:32 10° NW 16:10:13 79° WSW 16:12:02 45° SSE
SL-16 R/B 4.1 16:05:03 10° N 16:10:23 31° NW 16:15:42 10° WSW
CENTAUR R/B 3.1 16:04:57 10° W 16:11:10 56° NNW 16:13:45 39° NE
Cosmos 1486 Rocket 4.5 16:08:14 10° SW 16:13:23 58° WNW 16:14:56 41° N
Cosmos 1953 Rocket 4.0 16:10:20 10° NNW 16:14:43 60° W 16:16:13 37° SSW
Nadezhda 2 Rocket 4.3 16:09:46 10° N 16:15:58 77° ENE 16:17:08 60° SE
Cosmos 2360 4.4 16:11:49 10° SW 16:17:32 69° NW 16:18:51 52° N
USA 81 4.1 16:12:23 10° N 16:17:40 77° W 16:22:55 10° S
USA 215 3.2 16:17:05 55° SE 16:18:41 79° SSW 16:25:17 10° WNW
Cosmos 2227 Rocket 3.1 16:13:36 10° NW 16:18:58 46° WSW 16:24:19 10° S
USA 281 3.5 16:24:53 49° NNE 16:24:53 49° NNE 16:30:31 10° NNW
Cosmos 2369 Rocket 4.0 16:23:47 10° WNW 16:27:58 20° NNW 16:29:28 18° N
GEOS 3 Rocket 4.3 16:29:20 46° N 16:29:54 48° NNW 16:35:03 10° W
Cosmos 1943 Rocket 4.1 16:33:37 10° NNW 16:36:13 17° N 16:36:13 17° N
Cosmos 2278 Rocket 4.1 16:33:29 10° NNW 16:36:26 17° N 16:36:26 17° N
Cosmos 1697 Rocket 3.0 16:35:37 10° SW 16:40:11 61° SW 16:40:11 61° SW
Cosmos 2082 4.5 16:58:12 10° NW 17:02:38 50° WNW 17:02:38 50° WNW
NOSS 3-2 (C) 4.0 16:58:49 10° WSW 17:02:36 49° WSW 17:02:36 49° WSW
NOSS 3-2 (A) 4.1 17:00:56 10° W 17:05:37 49° NW 17:05:37 49° NW
Lacrosse 4 Rocket 4.4 17:13:52 10° NW 17:14:13 11° NW 17:14:13 11° NW
Cosmos 2263 Rocket 4.5 17:49:34 10° WNW 17:53:17 18° W 17:53:46 18° WSW
CENTAUR R/B 4.0 17:56:22 10° WNW 18:00:51 38° NW 18:00:51 38° NW
